Starlink 33843

operational
NORAD ID: 63507 Int'l Des: 2025-071 Owner: SPXS Country: US Constellation: starlink
LEOCIRCULAR

Über Starlink 33843

Beschreibung wird geladen...

Live-Position

3D-Globus wird geladen...

Nächste Überflüge

Höhenverlauf

Altitude vs Time

uPlot chart will show altitude changes over time

Zweizeiliger Elementsatz

1 63507U 25071Q 25351.74456026 .00022134 00000-0 75735-3 0 9998
2 63507 53.1588 160.5216 0000903 77.3704 282.7397 15.30194619 40207
Epoch: 17. Dez. 2025 • Age: 14 hours

Aktueller Status

Höhe 481.1 km
Geschwindigkeit 7.63 km/s
Subsatellitenpunkt 53.19°N, 29.81°E
Startdatum 7. Apr. 2025
Alter 0.6 years
Typ internet

Technische Details

Klassifizierung Payload
Masse 575.00 kg
Trockenmasse 530.00 kg
Gesamtmasse 575.00 kg
Länge 0.30 m
Durchmesser 4.10 m
Spannweite 29.00 m
Form Box + pan
Hersteller SPXS
Bus-Typ Starlink V2MO
Phasenstatus In Orbit
Besitzer/Staat SPXS/US

Große Konstellationen

Loading constellations...